Retour au catalogue

DJIBOUTI-1B

ActifScienceVLEO
NORAD 62402·PAYLOAD·🇩🇯 DJ

Lancé Dec 21, 2024 depuis Vandenberg Space Force Base

Loading…

Prochains Passages (prochaines 24 heures)

TLE

FraisSource: Space-Track

Époque: Sep 14, 2026, 13:46 UTC

1 62402U 24247AB  26257.57422850  .00084194  00000-0  75670-3 0  9992
2 62402  44.9656  90.1972 0010317 239.4053 120.5827 15.67266139 97508

Suivez DJIBOUTI-1B en temps réel avec AllMySat

Download on the App Store